Location: Ku?niki
(51.4449°N, 17.8974°E)
Time: 13:51:17
(UTC+00:00)

POLYITAN 1 - Pass Details

Date: 01 July 2022
Orbit: 586 x 605 km, 98.0° (Epoch: 17 August)

Event Time Altitude Azimuth Distance (km) Brightness Sun altitude
Rises 23:49:26 0° 24° (NNE) 2,862 ? -14.5°
Reaches altitude 10° 23:51:56 10° 38° (NE) 1,957 ? -14.4°
Maximum altitude 23:55:27 25° 94° (E) 1,243 ? -14.2°
Enters shadow 23:58:42 11° 147° (SSE) 1,869 ? -14.1°
